Location: Ford County Road and Bridge Department
(37.7686°N, 99.9762°W)
Time: 17:27:20
(UTC+00:00)

YAOGAN 6 - Pass Details

Date: 18 January 2020
Orbit: 465 x 506 km, 97.0° (Epoch: 23 February)

Event Time Altitude Azimuth Distance (km) Brightness Sun altitude
Rises 00:13:39 0° 147° (SSE) 2,594 6.1 -5.7°
Reaches altitude 10° 00:15:52 10° 138° (SE) 1,714 5.1 -6.1°
Maximum altitude 00:19:12 33° 73° (ENE) 867 3.3 -6.7°
Drops below altitude 10° 00:22:33 10° 9° (N) 1,719 5.1 -7.4°
Sets 00:24:46 0° 359° (N) 2,604 6.1 -7.8°
